Location: Barrialito
(10.1025°N, 66.8154°W)
Time: 16:38:58
(UTC+00:00)

Landsat 7 - Pass Details

Date: 10 September 2024
Orbit: 689 x 691 km, 97.9° (Epoch: 15 October)

Event Time Altitude Azimuth Distance (km) Brightness Sun altitude
Rises 23:09:23 0° 160° (SSE) 3,054 6.9 -10.4°
Reaches altitude 10° 23:11:40 10° 156° (SSE) 2,138 6.0 -10.9°
Maximum altitude 23:16:15 58° 78° (ENE) 806 3.8 -12.0°
Drops below altitude 10° 23:20:51 10° 359° (N) 2,137 6.4 -13.2°
Sets 23:23:07 0° 355° (N) 3,052 7.3 -13.7°
